Погода в Лебедине

Украина / Сумская область     50°34′35″N   34°29′11″E
темп.,
°C
ветер,
м/с
пор.,
м/с
влажн.,
%
обл.,
%
осадки,
мм/ч
давл.,
гПа
погр.,
м
13 августа, сб
сб1300:00+20с3678100 1.3 101780
03:00+20св2277100 1.3 101722
06:00+21св51065100 0.0 1016158
09:00+24св61455100 0.0 1015668
12:00+26в495491 0.0 1015332
15:00+29в8104258 0.0 10141459
18:00+29всв6104676 0.0 1013625
21:00+25всв6144588 0.0 1013378
14 августа, вс
вс1400:00+25в7174194 0.0 1013638
03:00+26вюв81539100 0.0 1012645
06:00+24в7164697 0.0 1012566
09:00+25в6135499 0.0 1012600
12:00+31вюв8113152 0.0 10121767
15:00+28в61142100 0.0 1012966
18:00+29в7124174 0.0 1011876
21:00+27всв7144253 0.0 1012631
15 августа, пн
пн1500:00+24всв71655100 0.0 1011508
03:00+23в6155181 0.0 1011474
06:00+22всв7165199 0.0 1011413
09:00+25в7134463 0.0 1011466
12:00+29в61034100 0.0 1011971
15:00+34в8112532 0.0 10102608
18:00+29в101632100 0.0 1010657
21:00+29св81431100 0.0 1009678
16 августа, вт
вт1600:00+30в101829100 0.0 1009847
03:00+29вюв91728100 0.0 1009714
06:00+27вюв81528100 0.1 1010775
09:00+26вюв81437100 0.1 1012742
12:00+25в71234100 0.0 1012683
15:00+27в71236100 0.0 10121012
18:00+27в8143699 0.0 1011663
21:00+27всв8163334 0.0 1010804
17 августа, ср
ср1700:00+26всв71634100 0.0 1010575
03:00+21в41257100 0.3 1009239
06:00+20вюв5135899 0.0 1010321
09:00+24юв61053100 0.1 1011547
12:00+29юв5638100 0.1 10111141
15:00+29в554266 0.1 10111256
18:00+29ссз2346100 0.0 1009187
21:00+24сз475714 0.1 1009123